{"data":{"norad_id":59148,"epoch":"2026-09-22T21:40:38.209728Z","epoch_age_seconds":50270,"freshness":"FRESH","line1":"1 59148U 24043BC  26265.90322002  .00020235  00000+0  27421-3 0  9999","line2":"2 59148  97.5512  59.9755 0003362 206.9513 153.1568 15.57712492142995","mean_motion":15.57712492,"eccentricity":0.0003362,"inclination_deg":97.5512,"raan_deg":59.9755,"arg_perigee_deg":206.9513,"mean_anomaly_deg":153.1568,"bstar":0.00027421,"rev_number":14299,"period_min":92.443246580833,"perigee_km":392.00230760136,"apogee_km":396.55608025016,"semimajor_km":6772.4161939258,"source":"CELESTRAK","updated_at":"2026-09-23T09:00:19.183659Z"}}